Regional Weather Roundup
Issued by NWS

Home | Current Version | Previous Version | Graphics & Text | Print | Product List | Glossary On
Versions: 1 2 3 4 5 6 7 8 9 10 11 12 13 14 15 16 17 18 19 20 21 22 23 24 25 26 27 28 29 30 31 32 33 34 35 36 37 38 39 40 41 42 43 44 45 46 47 48 49 50
000
ASUS43 KLOT 232303
RWRIL

ILLINOIS REGIONAL WEATHER ROUNDUP
NATIONAL WEATHER SERVICE CHICAGO/ROMEOVILLE IL
600 PM CDT SAT JUL 23 2016

NOTE: "FAIR" INDICATES FEW OR NO CLOUDS BELOW 12,000 FEET WITH NO
SIGNIFICANT WEATHER AND/OR OBSTRUCTIONS TO VISIBILITY.

* THESE STATIONS ARE NOT UNDER NWS QUALITY CONTROL. THEY ALSO MAY NOT
  REPORT WEATHER SUCH AS PRECIPITATION OR FOG.

ILZ001-002-007-009-015-016-024-240000-
NORTHWEST ILLINOIS

CITY           SKY/WX    TMP DP  RH WIND       PRES   REMARKS
MOLINE         CLOUDY    88  80  77 SE10      29.87F HX 104
STERLING*      MOSUNNY   85  80  85 CALM      29.91F HX  99
SAVANNA*       CLOUDY    82  78  88 E5        29.89F HX  92
$$

ILZ003-004-008-010-011-017-018-240000-
NORTH CENTRAL ILLINOIS

CITY           SKY/WX    TMP DP  RH WIND       PRES   REMARKS
ROCKFORD       TSTM      73  69  87 E10       29.94F
FREEPORT*      CLOUDY    75  73  91 E6        29.96R
ROCHELLE*      CLOUDY    83  78  83 CALM      29.94S HX  92
DE KALB*       CLOUDY    76  70  82 NE14G22   29.98R
$$

ILZ005-006-012>014-019>023-240000-
NORTHEAST ILLINOIS

CITY           SKY/WX    TMP DP  RH WIND       PRES   REMARKS
CHICAGO-OHARE  CLOUDY    87  74  64 SW3       29.92F HX  95
CHICAGO-MIDWAY CLOUDY    89  75  63 SW10      29.91F HX  99
AURORA         CLOUDY    86  78  77 SW3       29.94F HX  98
LANSING*       CLOUDY    87  76  69 S9        29.93F HX  98
WAUKEGAN       TSTM      71  70  96 NE7       29.95F VSB 3/4
DUPAGE AIRPORT CLOUDY    85  76  74 W6        29.93S HX  94
WHEELING       CLOUDY    78  73  84 N28G36    29.97R THUNDER HX  81
MORRIS*        CLOUDY    87  77  72 S6        29.91F HX  99
NORTHERLY ISL    N/A     78  74  87 S2          N/A  HX  81
$$

LMZ740>746-240000-
SOUTHERN LAKE MICHIGAN

STATION/POSITION SKY/WX   TEMP    WIND        PRES    VSBY  WAVE
                          AIR SEA DIR/SP/G                  HT/PER
                          (F)     (DEG/KT/KT) (MB)    (MI)  (FT/S)
SOUTHERN BUOY              78 78   40/  4/  6 1013.9          0
WILMETTE HARBOR            77 75  110/  6/  8   N/A           1
HARRISON CRIB              81     100/ 11/ 11   N/A
BURNHAM HARBOR             78     140/  3/  7   N/A
CALUMET HARBOR                     90/  6/  9   N/A
BURNS HARBOR               81      60/  9/ 11 1014.2S
MICHIGAN CITY              79      30/  8/  9   N/A
MICHIGAN CITY 6N           80 78   60/  4/  6   N/A           1
ST. JOSEPH                 82      40/  4/  4 1013.5F         1
$$

ILZ025>027-034>036-040-047-049-050-058-095>099-240000-
WEST-CENTRAL ILLINOIS

CITY           SKY/WX    TMP DP  RH WIND       PRES   REMARKS
QUINCY         SUNNY     92  80  68 S7        29.89F HX 110
GALESBURG*     CLOUDY    87  79  77 SE5       29.91S HX 101
MACOMB*        SUNNY     89  81  77 S10       29.92F HX 107
JACKSONVILLE*  SUNNY     89  78  69 SE8       29.91F HX 103
PITTSFIELD*    SUNNY     90  81  74 SE6       29.91F HX 108
$$

ILZ028>032-037-038-041>044-048-051>054-059>061-240000-
CENTRAL ILLINOIS

CITY           SKY/WX    TMP DP  RH WIND       PRES   REMARKS
PONTIAC        PTSUNNY   89  80  75 S6        29.95S HX 105
BLOOMINGTON    CLOUDY    87  77  72 S10       29.96S HX  99
DECATUR        PTSUNNY   90  76  63 S9        29.93F HX 101
PEORIA         CLOUDY    90  78  68 S9        29.91F HX 104
LACON*         CLOUDY    88  77  69 S6        29.90F HX 100
LINCOLN*       MOSUNNY   90  79  70 S6        29.92F HX 106
SPRINGFIELD    SUNNY     90  78  68 S5        29.92F HX 104
TAYLORVILLE    MOSUNNY   88  77  70 NW5       29.93S HX 100
$$

ILZ033-039-045-046-055>057-062-063-240000-
EAST-CENTRAL ILLINOIS

CITY           SKY/WX    TMP DP  RH WIND       PRES   REMARKS
CHAMPAIGN      MOSUNNY   87  77  72 S6        29.95F HX  99
MATTOON        SUNNY     87  74  64 SE3       29.94S HX  95
PARIS*         SUNNY     87  80  77 CALM      29.95F HX 103
$$

ILZ079-100>102-240000-
SOUTHWEST ILLINOIS

CITY           SKY/WX    TMP DP  RH WIND       PRES   REMARKS
BELLEVILLE     SUNNY     91  78  63 MISG      29.89F HX 105
CAHOKIA*       SUNNY     93  74  53 SE7       29.89F HX 103
SPARTA*        SUNNY     90  76  63 SE8       29.92F HX 101
$$

ILZ064>066-069>071-074>076-080>082-084>086-088>090-092>094-240000-
SOUTH-CENTRAL ILLINOIS

CITY           SKY/WX    TMP DP  RH WIND       PRES   REMARKS
CARBONDALE     SUNNY     90  74  59 SE6       29.91F HX  99
CAIRO*         MOSUNNY   89  77  67 NE3       29.89F HX 102
EFFINGHAM*     SUNNY     89  76  67 SE3       29.94F HX 100
MARION         MOSUNNY   91  77  62 NE6       29.92F HX 105
MT. VERNON     MOSUNNY   93  73  52 SE7       29.92F HX 102
CENTRALIA*     SUNNY     91  79  66 E3        29.91F HX 107
SALEM*         SUNNY     90  75  61 SE3       29.92F HX 100
METROPOLIS*    SUNNY     92  77  61 CALM      29.91F HX 105
$$

ILZ067-068-072-073-078-083-087-091-240000-
SOUTHEAST ILLINOIS

CITY           SKY/WX    TMP DP  RH WIND       PRES   REMARKS
LAWRENCEVILLE  MOSUNNY   89  77  67 SE3       29.92F HX 101
FLORA*         SUNNY     90  77  66 CALM      29.92F HX 103
FAIRFIELD*     SUNNY     89  76  66 SE3       29.91F HX 100
HARRISBURG*    SUNNY     89  78  70 CALM      29.92F HX 102
ROBINSON*        N/A     89  75  63 CALM      29.93  HX  98
CARMI*         SUNNY     89  78  70 CALM      29.92S HX 103
$$

ABBREVIATIONS USED IN REMARKS
   TC - TEMPERATURE IN CELSIUS
  WCI - WIND CHILL INDEX
   HX - HEAT INDEX
  VSB - VISIBILITY
$$




USA.gov is the U.S. government's official web portal to all federal, state and local government web resources and services.